This is the latest recevied weather packets stored in our database for station/object K1BES. If no packets are shown the sender has not sent any weather packets the latest 10 day(s).
| Time | Temp. | Humidity | Pressure | Rain* | Wind** | Luminosity | Snow |
|---|---|---|---|---|---|---|---|
| 1788472080 | 31.67° C | 73% | 1014.8 hPa | 0 mm | - | 157 W/m² | - |
| 1788471776 | 31.67° C | 73% | 1014.8 hPa | 0 mm | - | 152 W/m² | - |
| 1788471476 | 31.67° C | 72% | 1014.8 hPa | 0 mm | - | 145 W/m² | - |
| 1788471172 | 31.67° C | 73% | 1014.9 hPa | 0 mm | - | 136 W/m² | - |
| 1788470867 | 31.11° C | 73% | 1014.9 hPa | 0 mm | - | 127 W/m² | - |
| 1788470564 | 31.11° C | 73% | 1014.6 hPa | 0 mm | - | 116 W/m² | - |
| 1788470263 | 31.11° C | 71% | 1014.6 hPa | 0 mm | - | 102 W/m² | - |
| 1788469959 | 31.11° C | 71% | 1014.6 hPa | 0 mm | - | 91 W/m² | - |
| 1788469655 | 31.11° C | 72% | 1014.4 hPa | 0 mm | - | 84 W/m² | - |
| 1788469351 | 31.11° C | 73% | 1014.5 hPa | 0 mm | - | 81 W/m² | - |
| 1788469050 | 31.67° C | 73% | 1014.3 hPa | 0 mm | - | 82 W/m² | - |
| 1788468749 | 31.11° C | 73% | 1014.6 hPa | 0 mm | - | 81 W/m² | - |
| 1788468445 | 31.11° C | 71% | 1014.8 hPa | 0 mm | - | 82 W/m² | - |
| 1788468141 | 31.11° C | 72% | 1014.7 hPa | 0 mm | - | 82 W/m² | - |
| 1788467836 | 31.67° C | 70% | 1014.8 hPa | 0 mm | - | 79 W/m² | - |
| 1788467533 | 31.67° C | 69% | 1015 hPa | 0 mm | - | 77 W/m² | - |
| 1788467232 | 31.67° C | 71% | 1015.1 hPa | 0 mm | - | 77 W/m² | - |
| 1788466928 | 31.67° C | 72% | 1015.1 hPa | 0 mm | - | 81 W/m² | - |
| 1788466627 | 32.22° C | 70% | 1015.3 hPa | 0 mm | - | 80 W/m² | - |
| 1788466323 | 32.22° C | 70% | 1015.2 hPa | 0 mm | - | 143 W/m² | - |
| 1788466021 | 32.78° C | 68% | 1015.2 hPa | 0 mm | - | 656 W/m² | - |
| 1788465717 | 32.78° C | 69% | 1015.3 hPa | 0 mm | - | 753 W/m² | - |
| 1788465413 | 32.78° C | 71% | 1015.5 hPa | 0 mm | - | 780 W/m² | - |
| 1788465109 | 32.78° C | 71% | 1015.4 hPa | 0 mm | - | 793 W/m² | - |
| 1788464808 | 32.78° C | 69% | 1015.5 hPa | 0 mm | - | 807 W/m² | - |
* Rain latest hour (hover to see other rain measurements)
** Current wind speed in m/s (hover to see current wind gust speed)